[[{"header":{"parameterUnit":"m.s-1","parameterCategory":1,"la1":30.2991,"la2":30.254,"lo1":-89.0895,"lo2":-89.0444,"dy":0.0017,"dx":0.0017,"nx":28,"ny":28,"refTime":"2024-04-25T03:00:00:Z","depth":0,"parameterNumber":2,"parameterNumberName":"U-component_of_WINDS"},"data":[0,0,0,0,0,0,0,0,0,0,0,0,0,0,0,0,0,0,0,0,0,0,0,0,0,0,0,0,0,0,0,0,0,0,0,0,0,0,0,0,0,0,0,0,0,0,0,0,0,0,0,0,0,0,0,0,0,0,-3.0511,-3.0513,0,-3.0654,-3.0656,-3.0657,-3.0689,-3.0688,-3.0687,-3.0686,-3.0831,-3.0836,-3.084,0,0,0,0,0,0,0,0,0,0,0,0,0,-3.0266,-3.0271,-3.0511,-3.0513,-3.0515,-3.0654,-3.0656,-3.0658,-3.0689,-3.0688,-3.0686,-3.0685,-3.0829,-3.0835,-3.0841,0,0,0,0,0,0,0,0,0,0,0,0,0,-3.0387,-3.0272,-3.0511,-3.0547,-3.0552,-3.0653,-3.0656,-3.0658,-3.0689,-3.0688,-3.0686,-3.0685,-3.0828,-3.0835,-3.0842,-3.0917,0,0,-3.0864,-3.0867,0,0,0,0,0,0,0,0,-3.038,-3.0396,-3.054,-3.0545,-3.055,-3.0652,-3.0623,-3.0745,-3.069,-3.0637,-3.0686,-3.0684,-3.0773,-3.0784,-3.0814,-3.0924,-3.093,-3.0864,-3.0869,-3.0872,-3.0874,0,0,0,0,0,0,0,-3.0372,-3.039,-3.0568,-3.0542,-3.0548,-3.0556,-3.0572,-3.0646,-3.0712,-3.0641,-3.0644,-3.0661,-3.0775,-3.0807,-3.0818,-3.0932,-3.0864,-3.0871,-3.0875,-3.0878,-3.1111,-3.1112,0,0,0,0,0,0,-3.0357,-3.0383,-3.0563,-3.0572,-3.046,-3.0562,-3.0579,-3.0621,-3.0711,-3.0723,-3.0662,-3.0662,-3.0796,-3.081,-3.0823,-3.0917,-3.0872,-3.0879,-3.0883,-3.1109,-3.1111,-3.1113,0,0,0,0,0,0,-3.0352,-3.0373,-3.0557,-3.0478,-3.0502,-3.0568,-3.0614,-3.0625,-3.0657,-3.0726,-3.0738,-3.0682,-3.0795,-3.0813,-3.0893,-3.0922,-3.0882,-3.0888,-3.1107,-3.1109,-3.1112,-3.1105,0,0,0,0,0,0,-3.0345,-3.0371,-3.04,-3.0479,-3.0507,-3.0625,-3.0616,-3.0628,-3.0669,-3.067,-3.0749,-3.076,-3.0795,-3.0883,-3.0901,-3.0931,-3.0894,-3.1104,-3.1108,-3.1111,-3.1102,-3.1107,-3.111,0,0,0,0,0,-3.0336,-3.0392,-3.0401,-3.0423,-3.0544,-3.0627,-3.0643,-3.0682,-3.0671,-3.0701,-3.0746,-3.0758,-3.0917,-3.089,-3.0911,-3.0945,-3.1103,-3.1107,-3.1111,-3.1101,-3.1106,-3.111,0,0,0,0,0,0,-3.0314,-3.0403,-3.0414,-3.0498,-3.0554,-3.0632,-3.067,-3.0686,-3.0747,-3.0745,-3.0791,-3.0809,-3.0886,-3.0924,-3.0893,-3.1022,-3.1009,-3.1018,-3.0994,-3.1,-3.1004,-3.0992,-3.09,0,0,0,0,0,-3.0319,-3.0379,-3.0453,-3.052,-3.0548,-3.0604,-3.0642,-3.0667,-3.0728,-3.0752,-3.0803,-3.0861,-3.0924,-3.0964,-3.1026,-3.1109,-3.1126,-3.1142,-3.1146,-3.1149,-3.1155,-3.1201,-3.1209,-3.1127,-3.1127,-3.1126,0,0,-3.033,-3.0386,-3.0421,-3.0517,-3.0564,-3.0624,-3.0624,-3.0688,-3.0734,-3.0762,-3.084,-3.088,-3.0948,-3.103,-3.1068,-3.1063,-3.1182,-3.1154,-3.1156,-3.1161,-3.1207,-3.1214,-3.1221,-3.1129,-3.1129,-3.1128,0,0,-3.0381,-3.0429,-3.049,-3.0537,-3.0609,-3.0646,-3.066,-3.0736,-3.0763,-3.0844,-3.0866,-3.0921,-3.1028,-3.1076,-3.1114,-3.1184,-3.1197,-3.1203,-3.1223,-3.1268,-3.1274,-3.128,-3.1304,-3.1312,-3.121,-3.121,-3.121,0,-3.0385,-3.0477,-3.0519,-3.0582,-3.0623,-3.0652,-3.0714,-3.0758,-3.0846,-3.0874,-3.0868,-3.1004,-3.1052,-3.1145,-3.1162,-3.1193,-3.121,-3.1193,-3.127,-3.1276,-3.1282,-3.1306,-3.1315,-3.121,-3.121,-3.121,-3.121,0,-3.0478,-3.0542,-3.0582,-3.0667,-3.0713,-3.0775,-3.0826,-3.0868,-3.089,-3.0928,-3.1009,-3.1069,-3.1143,-3.1167,-3.1189,-3.1264,-3.1259,-3.1261,-3.1248,-3.129,-3.1312,-3.1322,-3.121,-3.121,-3.121,-3.121,0,0,-3.0517,-3.0625,-3.0639,-3.0677,-3.0759,-3.0809,-3.0873,-3.0946,-3.098,-3.1041,-3.1095,-3.1186,-3.1189,-3.1232,-3.126,-3.13,-3.135,-3.1297,-3.1299,-3.1304,-3.1435,-3.1432,-3.1442,-3.136,-3.1362,-3.1364,-3.1429,0,-3.0577,-3.0691,-3.0731,-3.0825,-3.0884,-3.0913,-3.0969,-3.1025,-3.1063,-3.1119,-3.1161,-3.1224,-3.1223,-3.125,-3.129,-3.1335,-3.1377,-3.1332,-3.141,-3.1413,-3.139,-3.1454,-3.1451,-3.1509,-3.1439,-3.144,-3.1441,0,-3.0661,-3.0722,-3.0822,-3.0896,-3.0923,-3.0972,-3.1042,-3.1095,-3.116,-3.1185,-3.1234,-3.1259,-3.1327,-3.1312,-3.1406,-3.1374,-3.1409,-3.1436,-3.144,-3.1447,-3.1428,-3.1462,-3.1529,-3.1537,-3.1456,-3.1455,-3.1454,0,-3.0677,-3.0785,-3.0859,-3.0892,-3.0981,-3.1014,-3.1053,-3.1116,-3.1157,-3.1219,-3.1247,-3.1315,-3.1353,-3.1406,-3.1449,-3.1434,-3.1539,-3.1527,-3.1561,-3.1559,-3.158,-3.1577,-3.1652,-3.1605,-3.1605,-3.1605,-3.1604,0,-3.0739,-3.0798,-3.0868,-3.0913,-3.0981,-3.1027,-3.1093,-3.1134,-3.119,-3.1243,-3.1274,-3.1323,-3.1378,-3.1435,-3.147,-3.1542,-3.1559,-3.158,-3.1588,-3.1577,-3.1574,-3.1599,-3.1595,-3.1607,-3.1606,-3.1606,-3.1606,0,-3.0768,-3.0817,-3.0899,-3.0977,-3.0998,-3.1045,-3.1112,-3.1157,-3.1196,-3.1264,-3.1282,-3.1345,-3.1413,-3.1462,-3.1551,-3.1574,-3.1651,-3.166,-3.1629,-3.1633,-3.1663,-3.1659,-3.1755,-3.177,-3.1714,-3.1714,-3.1715,0,-3.0803,-3.085,-3.0933,-3.0971,-3.1009,-3.107,-3.1113,-3.1161,-3.1204,-3.1281,-3.1317,-3.1388,-3.1447,-3.1555,-3.1608,-3.1676,-3.1686,-3.1715,-3.1696,-3.1683,-3.1685,-3.1681,-3.1685,-3.1717,-3.1717,-3.1718,-3.1718,0,-3.0859,-3.0882,-3.0942,-3.101,-3.106,-3.1117,-3.1174,-3.1204,-3.1261,-3.1308,-3.1379,-3.1425,-3.1516,-3.1585,-3.1659,-3.1699,-3.1718,-3.1724,-3.1735,-3.1723,-3.1702,-3.1712,-3.1635,-3.1721,-3.1721,-3.172,-3.172,-3.172,-3.0892,-3.0935,-3.1,-3.1066,-3.1114,-3.1166,-3.1212,-3.1258,-3.1318,-3.1395,-3.142,-3.1493,-3.1557,-3.1658,-3.1699,-3.1757,-3.1755,-3.1772,-3.1776,-3.1778,-3.1777,-3.1694,-3.1771,-3.1771,-3.1771,-3.1771,-3.1771,0,-3.0949,-3.0992,-3.1053,-3.1131,-3.1183,-3.1198,-3.1262,-3.1304,-3.1368,-3.1426,-3.1484,-3.1565,-3.1634,-3.1692,-3.1763,-3.1798,-3.1809,-3.1815,-3.1812,-3.1821,-3.1775,-3.1758,-3.1805,-3.1805,-3.1805,-3.1805,-3.1805,-3.1805,-3.0985,-3.1057,-3.1087,-3.1184,-3.1228,-3.1299,-3.1335,-3.1383,-3.143,-3.1519,-3.1576,-3.1614,-3.1673,-3.1748,-3.1812,-3.1827,-3.1851,-3.1855,-3.1873,-3.1828,-3.1824,-3.182,-3.1804,-3.186,-3.186,-3.1913,-3.1914,-3.1914]},{"header":{"parameterUnit":"m.s-1","parameterCategory":1,"la1":30.2991,"la2":30.254,"lo1":-89.0895,"lo2":-89.0444,"dy":0.0017,"dx":0.0017,"nx":28,"ny":28,"refTime":"2024-04-25T03:00:00:Z","depth":0,"parameterNumber":3,"parameterNumberName":"V-component_of_WINDS"},"data":[0,0,0,0,0,0,0,0,0,0,0,0,0,0,0,0,0,0,0,0,0,0,0,0,0,0,0,0,0,0,0,0,0,0,0,0,0,0,0,0,0,0,0,0,0,0,0,0,0,0,0,0,0,0,0,0,0,0,3.7293,3.7293,0,3.7301,3.7301,3.7301,3.723,3.7228,3.7226,3.7224,3.7231,3.7233,3.7235,0,0,0,0,0,0,0,0,0,0,0,0,0,3.7215,3.7217,3.7293,3.7293,3.7293,3.7301,3.7301,3.7301,3.723,3.7227,3.7225,3.7223,3.723,3.7233,3.7235,0,0,0,0,0,0,0,0,0,0,0,0,0,3.7239,3.7217,3.7293,3.7259,3.7256,3.7301,3.7301,3.7301,3.723,3.7227,3.7224,3.7222,3.723,3.7233,3.7236,3.7314,0,0,3.7245,3.7246,0,0,0,0,0,0,0,0,3.7237,3.7242,3.7264,3.7261,3.7258,3.7261,3.7276,3.7306,3.7231,3.724,3.7224,3.722,3.7243,3.7245,3.7253,3.7315,3.7315,3.7245,3.7247,3.7248,3.7249,0,0,0,0,0,0,0,3.7236,3.7241,3.7296,3.7264,3.726,3.7242,3.7242,3.7281,3.7258,3.7239,3.7234,3.7236,3.7241,3.725,3.7253,3.7315,3.7245,3.7248,3.725,3.7251,3.7442,3.7445,0,0,0,0,0,0,3.7239,3.724,3.7296,3.7296,3.724,3.7246,3.7246,3.7263,3.7258,3.7254,3.7238,3.7232,3.7247,3.7249,3.7253,3.7345,3.7248,3.7251,3.7253,3.7439,3.7442,3.7446,0,0,0,0,0,0,3.7238,3.7245,3.7296,3.7267,3.7272,3.7251,3.727,3.7265,3.7274,3.7257,3.7253,3.7252,3.7244,3.7248,3.73,3.7344,3.7253,3.7255,3.7435,3.744,3.7444,3.7531,0,0,0,0,0,0,3.7236,3.7245,3.7275,3.7268,3.7274,3.7343,3.7273,3.7267,3.728,3.7272,3.7269,3.7265,3.7242,3.7295,3.7303,3.7347,3.7258,3.7431,3.7437,3.7443,3.7524,3.7538,3.755,0,0,0,0,0,3.7233,3.7298,3.7276,3.7284,3.7311,3.7346,3.7349,3.7321,3.7283,3.7313,3.7302,3.7266,3.7338,3.7301,3.7309,3.7355,3.7428,3.7435,3.7442,3.7518,3.7535,3.755,0,0,0,0,0,0,3.731,3.7297,3.7272,3.7337,3.7343,3.7333,3.737,3.734,3.7357,3.7349,3.7313,3.7313,3.7371,3.7367,3.7327,3.7431,3.7376,3.7385,3.7431,3.7447,3.746,3.746,3.726,0,0,0,0,0,3.7335,3.7364,3.7351,3.7409,3.7414,3.7392,3.7406,3.7384,3.7389,3.7391,3.7383,3.7389,3.7413,3.743,3.7451,3.7522,3.7521,3.7558,3.7571,3.7582,3.759,3.7629,3.7645,3.747,3.747,3.747,0,0,3.7386,3.7382,3.7403,3.7425,3.7427,3.7458,3.7394,3.743,3.7453,3.7396,3.7444,3.7439,3.7443,3.7505,3.7532,3.7504,3.7638,3.7591,3.76,3.7602,3.7638,3.7655,3.7669,3.7475,3.7474,3.7473,0,0,3.7495,3.7495,3.7544,3.7548,3.7552,3.7536,3.7548,3.7543,3.7538,3.7586,3.7544,3.757,3.7612,3.7617,3.7625,3.7737,3.7704,3.7744,3.7813,3.7851,3.7865,3.7877,3.7918,3.7933,3.7753,3.7753,3.7753,0,3.7558,3.7604,3.7573,3.7612,3.7623,3.7573,3.7623,3.7627,3.7638,3.7647,3.7616,3.7668,3.7667,3.773,3.7757,3.7765,3.7778,3.7745,3.7866,3.7877,3.7888,3.7927,3.7942,3.7758,3.7758,3.7757,3.7757,0,3.7682,3.7714,3.7754,3.7766,3.7781,3.7825,3.7801,3.782,3.7797,3.7785,3.7835,3.7832,3.7852,3.7865,3.7842,3.7925,3.7908,3.7872,3.7816,3.7911,3.7946,3.7961,3.7765,3.7764,3.7762,3.7761,0,0,3.7841,3.7835,3.785,3.7856,3.7856,3.7881,3.7923,3.7943,3.796,3.7969,3.8004,3.8041,3.8007,3.8016,3.7994,3.8027,3.8117,3.7987,3.7986,3.8012,3.8209,3.8237,3.8255,3.8094,3.8097,3.8099,3.8209,0,3.7948,3.802,3.7993,3.8067,3.8097,3.805,3.8086,3.8091,3.8081,3.8105,3.8093,3.8121,3.8074,3.8079,3.811,3.81,3.8156,3.8091,3.8127,3.8129,3.8129,3.8273,3.8303,3.8407,3.8222,3.8225,3.8226,0,3.8084,3.8099,3.8176,3.8172,3.8184,3.8217,3.8234,3.8257,3.8261,3.8251,3.8262,3.8232,3.8273,3.8217,3.8273,3.8229,3.8242,3.8239,3.8243,3.8246,3.8184,3.8282,3.8439,3.8456,3.8248,3.8246,3.8245,0,3.8194,3.8233,3.8284,3.829,3.8286,3.8311,3.8311,3.8312,3.8326,3.834,3.8348,3.8367,3.8378,3.8393,3.8369,3.833,3.8429,3.837,3.8423,3.8424,3.8447,3.8446,3.861,3.8453,3.8453,3.8452,3.8452,0,3.8318,3.8367,3.8334,3.8366,3.842,3.8388,3.8442,3.8436,3.8438,3.8467,3.8427,3.8456,3.8422,3.8447,3.8429,3.8479,3.8483,3.8477,3.8472,3.8482,3.8483,3.8491,3.8484,3.8456,3.8456,3.8455,3.8454,0,3.845,3.843,3.8483,3.8475,3.8474,3.8515,3.8508,3.8537,3.8524,3.8562,3.8569,3.8549,3.8577,3.8554,3.8581,3.8569,3.8636,3.8619,3.8635,3.8631,3.8685,3.8681,3.8861,3.8884,3.8711,3.8712,3.8714,0,3.8532,3.8569,3.8565,3.8582,3.8584,3.8612,3.8627,3.8597,3.8613,3.862,3.8649,3.8673,3.8692,3.8739,3.8727,3.8747,3.8732,3.8794,3.8735,3.8744,3.8735,3.8734,3.8738,3.8806,3.8808,3.881,3.8811,0,3.8679,3.8667,3.8689,3.8708,3.8726,3.8739,3.8749,3.8766,3.8735,3.8755,3.8784,3.8798,3.8826,3.8851,3.8868,3.8867,3.8835,3.883,3.8843,3.8854,3.8863,3.886,3.8669,3.8826,3.8825,3.8823,3.8823,3.8822,3.8789,3.882,3.8823,3.8849,3.8853,3.8863,3.8891,3.8881,3.8904,3.8925,3.8906,3.894,3.8943,3.8962,3.8965,3.8992,3.8966,3.8986,3.8991,3.8996,3.9005,3.8857,3.8995,3.8994,3.8994,3.8993,3.8993,0,3.8935,3.8934,3.8959,3.8974,3.8995,3.8962,3.8971,3.8991,3.9022,3.9028,3.9046,3.908,3.9104,3.9093,3.9115,3.9138,3.9124,3.9145,3.9144,3.9144,3.9026,3.9013,3.9156,3.9156,3.9156,3.9156,3.9156,3.9156,3.9014,3.9065,3.9054,3.9107,3.9105,3.9139,3.9147,3.9157,3.9161,3.92,3.922,3.9213,3.9212,3.9233,3.9254,3.925,3.9261,3.9288,3.9279,3.9169,3.9153,3.9137,3.9125,3.929,3.929,3.9395,3.9396,3.9397]}]]